Location: Seattle
(47.6064°N, 122.3308°W)
Time: 05:32:25
(UTC-08:00)

N. Korean satellite - Pass Details

Date: 06 December 2022
Orbit: 407 x 441 km, 97.3° (Epoch: 05 February)

Event Time Altitude Azimuth Distance (km) Brightness Sun altitude
Rises 04:59:43 0° 21° (NNE) 2,517 10.4 -26.5°
Reaches altitude 10° 05:01:57 10° 32° (NNE) 1,628 9.5 -26.1°
Maximum altitude 05:05:07 31° 96° (E) 826 8.3 -25.6°
Drops below altitude 10° 05:08:13 10° 161° (SSE) 1,590 9.4 -25.1°
Sets 05:10:22 0° 172° (S) 2,447 10.3 -24.7°
